Simultaneous Nadir Overpasses (SNOs) Predictions

Prediction of SNOs between NOAA-19 and METOP-C Satellite Orbit:

Table of predicted SNOs for the next 14.0 days since TLE Epoch: 12/20/2019
Index Date (NOAA-19) Time (NOAA-19) Lat,Lon (NOAA-19) SZA (NOAA-19 ) Date (METOP-C) Time (METOP-C) Lat,Lon (METOP-C) SZA (METOP-C ) Distance(km) Time Diff (sec)
1 12/24/2019 01:46:52 79.84, 170.93 103.67 12/24/2019 01:48:00 79.79, 173.64 103.79 53.59 68
2 12/24/2019 02:37:42 -79.69, -20.12 76.39 12/24/2019 02:38:44 -79.67, -20.14 76.40 2.62 62
3 12/24/2019 03:28:46 79.66, 147.43 103.60 12/24/2019 03:29:24 79.69, 147.38 103.64 3.32 38
4 12/24/2019 04:19:42 -79.67, -45.42 76.40 12/24/2019 04:20:05 -79.66, -45.55 76.41 3.02 23
5 12/24/2019 05:10:47 79.67, 121.84 103.60 12/24/2019 05:10:45 79.68, 121.97 103.62 2.88 2
6 12/24/2019 06:01:43 -79.68, -71.00 76.40 12/24/2019 06:01:26 -79.65, -70.96 76.43 3.30 17
7 12/24/2019 06:52:47 79.65, 96.55 103.60 12/24/2019 06:52:06 79.67, 96.56 103.61 2.62 41
8 12/24/2019 07:43:43 -79.66, -96.30 76.41 12/24/2019 07:42:47 -79.64, -96.36 76.44 2.34 56
9 01/03/2020 21:03:23 -79.69, 63.88 77.05 01/03/2020 21:04:32 -79.72, 63.84 77.02 2.70 69




NCC Satellite Simultaneous Nadir Overpasses (SNOs) Prediction Service
